CPA356 VHHH-ZSNJ

Flight info

Callsign CPA356
Flight time 1h 48m
Altitude 41100
Route LEKEN V601 DOTMI A470 EMRID W135 GOSRO
Aircraft A359/H-SDE2E3GHIJ3J4J5LM1ORWXY/LB1D1

Departure

Time 2026-05-03 22:16
Airport Hong Kong International Airport (VHHH)

Arrival

Time 2026-05-04 00:04
Airport Nanjing Lukou International Airport (ZSNJ)
Time Latitude Longitude Altitude Speed Heading
2026-05-03 21:47 22.31197 113.93483 43 ft 0 kts 71°
2026-05-03 22:01 22.31195 113.93477 42 ft 2 kts 71°
2026-05-03 22:02 22.31189 113.93457 42 ft 3 kts 72°
2026-05-03 22:02 22.31183 113.93437 43 ft 3 kts 71°
2026-05-03 22:02 22.31178 113.93418 43 ft 3 kts 88°
2026-05-03 22:02 22.31179 113.93398 43 ft 3 kts 109°
2026-05-03 22:03 22.31186 113.93381 42 ft 3 kts 131°
2026-05-03 22:03 22.31198 113.93368 43 ft 3 kts 153°
2026-05-03 22:03 22.31206 113.93364 43 ft 0 kts 161°
2026-05-03 22:06 22.31200 113.93366 43 ft 4 kts 161°
2026-05-03 22:06 22.31151 113.93384 43 ft 9 kts 161°
2026-05-03 22:06 22.31081 113.93410 43 ft 12 kts 161°
2026-05-03 22:07 22.31006 113.93410 43 ft 11 kts 216°
2026-05-03 22:07 22.30962 113.93332 43 ft 12 kts 242°
2026-05-03 22:07 22.30918 113.93243 43 ft 15 kts 245°
2026-05-03 22:07 22.30882 113.93132 43 ft 17 kts 250°
2026-05-03 22:08 22.30849 113.93026 42 ft 16 kts 251°
2026-05-03 22:08 22.30814 113.92918 43 ft 14 kts 250°
2026-05-03 22:08 22.30780 113.92814 42 ft 14 kts 251°
2026-05-03 22:08 22.30745 113.92705 43 ft 17 kts 251°
2026-05-03 22:09 22.30709 113.92594 43 ft 16 kts 251°
2026-05-03 22:09 22.30671 113.92477 44 ft 17 kts 251°
2026-05-03 22:09 22.30633 113.92361 44 ft 16 kts 251°
2026-05-03 22:10 22.30552 113.92110 44 ft 19 kts 251°
2026-05-03 22:10 22.30515 113.91996 44 ft 15 kts 251°
2026-05-03 22:10 22.30479 113.91883 44 ft 17 kts 251°
2026-05-03 22:10 22.30440 113.91761 43 ft 14 kts 251°
2026-05-03 22:11 22.30404 113.91651 43 ft 17 kts 251°
2026-05-03 22:11 22.30365 113.91530 43 ft 15 kts 251°
2026-05-03 22:11 22.30331 113.91424 43 ft 13 kts 251°
2026-05-03 22:11 22.30298 113.91322 43 ft 16 kts 251°
2026-05-03 22:12 22.30260 113.91205 43 ft 18 kts 251°
2026-05-03 22:12 22.30217 113.91073 41 ft 18 kts 251°
2026-05-03 22:12 22.30173 113.90938 43 ft 20 kts 251°
2026-05-03 22:12 22.30130 113.90802 43 ft 19 kts 251°
2026-05-03 22:13 22.30089 113.90677 43 ft 19 kts 251°
2026-05-03 22:13 22.30044 113.90537 41 ft 21 kts 251°
2026-05-03 22:13 22.29994 113.90382 42 ft 23 kts 251°
2026-05-03 22:13 22.29941 113.90217 43 ft 23 kts 251°
2026-05-03 22:14 22.29891 113.90065 42 ft 16 kts 251°
2026-05-03 22:14 22.29855 113.89952 43 ft 17 kts 251°
2026-05-03 22:14 22.29823 113.89881 43 ft 8 kts 219°
2026-05-03 22:14 22.29764 113.89881 43 ft 9 kts 161°
2026-05-03 22:15 22.29697 113.89907 43 ft 11 kts 158°
2026-05-03 22:15 22.29671 113.89955 43 ft 8 kts 84°
2026-05-03 22:15 22.29700 113.90043 43 ft 29 kts 70°
2026-05-03 22:15 22.29853 113.90517 41 ft 102 kts 71°
2026-05-03 22:16 22.30156 113.91454 45 ft 161 kts 71°
2026-05-03 22:16 22.30544 113.92648 678 ft 164 kts 69°
2026-05-03 22:16 22.30913 113.93793 1527 ft 161 kts 69°
2026-05-03 22:16 22.31280 113.94941 2186 ft 164 kts 69°
2026-05-03 22:17 22.31659 113.96110 2642 ft 166 kts 69°
2026-05-03 22:17 22.32042 113.97296 3106 ft 169 kts 68°
2026-05-03 22:17 22.32439 113.98535 3363 ft 185 kts 68°
2026-05-03 22:17 22.32881 113.99908 3574 ft 202 kts 69°
2026-05-03 22:18 22.33364 114.01403 3827 ft 219 kts 69°
2026-05-03 22:18 22.33779 114.03039 4112 ft 234 kts 79°
2026-05-03 22:18 22.33748 114.04876 4322 ft 257 kts 101°
2026-05-03 22:18 22.33003 114.06673 4737 ft 269 kts 126°
2026-05-03 22:19 22.31611 114.08043 5290 ft 274 kts 150°
2026-05-03 22:19 22.29815 114.08703 5897 ft 276 kts 174°
2026-05-03 22:19 22.27887 114.08781 6490 ft 278 kts 181°
2026-05-03 22:19 22.25941 114.08750 7102 ft 279 kts 182°
2026-05-03 22:20 22.24012 114.08729 7670 ft 282 kts 181°
2026-05-03 22:20 22.22037 114.08705 8203 ft 285 kts 182°
2026-05-03 22:20 22.20042 114.08671 8780 ft 288 kts 182°
2026-05-03 22:20 22.18021 114.08717 9316 ft 292 kts 174°
2026-05-03 22:21 22.16117 114.09484 9839 ft 299 kts 146°
2026-05-03 22:21 22.14738 114.11182 10281 ft 309 kts 122°
2026-05-03 22:21 22.13723 114.13286 10534 ft 323 kts 117°
2026-05-03 22:21 22.12722 114.15509 10764 ft 336 kts 118°
2026-05-03 22:22 22.11665 114.17814 10982 ft 349 kts 118°
2026-05-03 22:22 22.10557 114.20188 11194 ft 360 kts 119°
2026-05-03 22:22 22.09403 114.22636 11409 ft 371 kts 119°
2026-05-03 22:22 22.08177 114.25089 11591 ft 380 kts 124°
2026-05-03 22:23 22.06425 114.27222 11863 ft 381 kts 143°
2026-05-03 22:23 22.04316 114.28957 12232 ft 383 kts 147°
2026-05-03 22:23 22.02150 114.30641 12618 ft 386 kts 148°
2026-05-03 22:23 21.99965 114.32341 13016 ft 388 kts 148°
2026-05-03 22:24 21.97770 114.34059 13414 ft 390 kts 147°
2026-05-03 22:24 21.95623 114.35745 13782 ft 392 kts 147°
2026-05-03 22:24 21.93417 114.37486 14158 ft 394 kts 147°
2026-05-03 22:24 21.91195 114.39232 14518 ft 396 kts 148°
2026-05-03 22:25 21.88961 114.40991 14867 ft 399 kts 147°
2026-05-03 22:25 21.86898 114.43020 15196 ft 408 kts 133°
2026-05-03 22:25 21.85484 114.45688 15570 ft 416 kts 112°
2026-05-03 22:25 21.84945 114.48763 15894 ft 423 kts 92°
2026-05-03 22:26 21.85141 114.51935 16242 ft 427 kts 84°
2026-05-03 22:26 21.85481 114.55132 16586 ft 429 kts 84°
2026-05-03 22:26 21.85793 114.58295 16899 ft 432 kts 85°
2026-05-03 22:26 21.86080 114.61520 17234 ft 434 kts 86°
2026-05-03 22:27 21.86349 114.64765 17548 ft 436 kts 86°
2026-05-03 22:27 21.86608 114.68027 17879 ft 438 kts 86°
2026-05-03 22:27 21.86863 114.71316 18186 ft 441 kts 86°
2026-05-03 22:27 21.87117 114.74627 18497 ft 444 kts 86°
2026-05-03 22:28 21.87369 114.77950 18837 ft 445 kts 86°
2026-05-03 22:28 21.87617 114.81236 19113 ft 448 kts 86°
2026-05-03 22:28 21.87869 114.84582 19418 ft 450 kts 86°
2026-05-03 22:28 21.88181 114.87954 19712 ft 452 kts 82°
2026-05-03 22:29 21.88958 114.91245 19996 ft 455 kts 69°
2026-05-03 22:29 21.90374 114.94290 20273 ft 456 kts 58°
2026-05-03 22:29 21.92114 114.97174 20529 ft 459 kts 54°
2026-05-03 22:29 21.93980 114.99970 20818 ft 460 kts 52°
2026-05-03 22:30 21.95898 115.02732 21099 ft 462 kts 52°
2026-05-03 22:30 21.97806 115.05462 21345 ft 464 kts 52°
2026-05-03 22:30 21.99742 115.08258 21598 ft 466 kts 52°
2026-05-03 22:30 22.01675 115.11082 21847 ft 468 kts 52°
2026-05-03 22:31 22.03600 115.13927 22042 ft 472 kts 52°
2026-05-03 22:31 22.05536 115.16807 22246 ft 475 kts 52°
2026-05-03 22:31 22.07474 115.19707 22513 ft 476 kts 52°
2026-05-03 22:31 22.09413 115.22611 22768 ft 477 kts 52°
2026-05-03 22:32 22.11328 115.25481 22971 ft 480 kts 52°
2026-05-03 22:32 22.13284 115.28413 23211 ft 481 kts 52°
2026-05-03 22:32 22.15244 115.31351 23457 ft 483 kts 52°
2026-05-03 22:32 22.17205 115.34291 23681 ft 484 kts 52°
2026-05-03 22:33 22.19178 115.37248 23901 ft 485 kts 52°
2026-05-03 22:33 22.21155 115.40211 24122 ft 487 kts 52°
2026-05-03 22:33 22.23136 115.43186 24335 ft 489 kts 52°
2026-05-03 22:33 22.25127 115.46177 24553 ft 490 kts 52°
2026-05-03 22:34 22.27125 115.49180 24773 ft 492 kts 52°
2026-05-03 22:34 22.29121 115.52183 24937 ft 494 kts 52°
2026-05-03 22:34 22.31100 115.55160 25145 ft 495 kts 52°
2026-05-03 22:34 22.33109 115.58186 25337 ft 497 kts 52°
2026-05-03 22:35 22.35121 115.61217 25563 ft 498 kts 52°
2026-05-03 22:35 22.37146 115.64269 25747 ft 500 kts 52°
2026-05-03 22:35 22.39178 115.67333 25936 ft 501 kts 52°
2026-05-03 22:35 22.41218 115.70411 26149 ft 503 kts 52°
2026-05-03 22:36 22.43258 115.73490 26365 ft 504 kts 52°
2026-05-03 22:36 22.45301 115.76574 26579 ft 505 kts 52°
2026-05-03 22:36 22.47348 115.79664 26780 ft 507 kts 52°
2026-05-03 22:36 22.49379 115.82735 26933 ft 509 kts 53°
2026-05-03 22:37 22.51445 115.85862 27139 ft 511 kts 53°
2026-05-03 22:37 22.53514 115.88996 27359 ft 512 kts 53°
2026-05-03 22:37 22.55591 115.92143 27579 ft 513 kts 53°
2026-05-03 22:37 22.57669 115.95293 27764 ft 516 kts 53°
2026-05-03 22:38 22.59758 115.98460 27958 ft 517 kts 53°
2026-05-03 22:38 22.61854 116.01641 28178 ft 519 kts 53°
2026-05-03 22:38 22.63950 116.04824 28441 ft 519 kts 53°
2026-05-03 22:38 22.66020 116.07971 28642 ft 521 kts 53°
2026-05-03 22:39 22.68122 116.11167 28836 ft 522 kts 53°
2026-05-03 22:39 22.70264 116.14369 29031 ft 523 kts 50°
2026-05-03 22:39 22.72707 116.17275 29241 ft 522 kts 40°
2026-05-03 22:39 22.75463 116.19834 29452 ft 522 kts 37°
2026-05-03 22:40 22.78306 116.22289 29622 ft 523 kts 35°
2026-05-03 22:40 22.81206 116.24702 29800 ft 525 kts 34°
2026-05-03 22:40 22.84129 116.27099 30015 ft 527 kts 34°
2026-05-03 22:40 22.87060 116.29496 30225 ft 528 kts 34°
2026-05-03 22:41 22.89995 116.31905 30428 ft 530 kts 34°
2026-05-03 22:41 22.92894 116.34298 30622 ft 532 kts 34°
2026-05-03 22:41 22.95843 116.36742 30824 ft 534 kts 34°
2026-05-03 22:41 22.98797 116.39189 31045 ft 535 kts 34°
2026-05-03 22:42 23.01764 116.41639 31238 ft 537 kts 34°
2026-05-03 22:42 23.04751 116.44103 31402 ft 539 kts 34°
2026-05-03 22:42 23.07741 116.46569 31587 ft 541 kts 34°
2026-05-03 22:42 23.10743 116.49050 31799 ft 542 kts 34°
2026-05-03 22:43 23.13749 116.51536 31966 ft 544 kts 34°
2026-05-03 22:43 23.16769 116.54033 32147 ft 545 kts 34°
2026-05-03 22:43 23.19790 116.56536 32279 ft 547 kts 34°
2026-05-03 22:43 23.22821 116.59050 32422 ft 549 kts 34°
2026-05-03 22:44 23.25863 116.61574 32582 ft 550 kts 34°
2026-05-03 22:44 23.27875 116.63244 32749 ft 550 kts 34°
2026-05-03 22:44 23.30920 116.65772 32975 ft 550 kts 34°
2026-05-03 22:44 23.33962 116.68297 33205 ft 550 kts 34°
2026-05-03 22:45 23.37999 116.71654 33502 ft 550 kts 34°
2026-05-03 22:45 23.41040 116.74187 33756 ft 550 kts 34°
2026-05-03 22:45 23.43063 116.75939 33921 ft 552 kts 38°
2026-05-03 22:45 23.45830 116.78781 34170 ft 553 kts 42°
2026-05-03 22:46 23.48539 116.81749 34436 ft 553 kts 43°
2026-05-03 22:46 23.51223 116.84766 34738 ft 552 kts 43°
2026-05-03 22:46 23.53880 116.87789 35017 ft 552 kts 44°
2026-05-03 22:46 23.56528 116.90817 35291 ft 552 kts 44°
2026-05-03 22:47 23.59174 116.93844 35583 ft 551 kts 43°
2026-05-03 22:47 23.61813 116.96858 35861 ft 550 kts 43°
2026-05-03 22:47 23.64458 116.99876 36154 ft 550 kts 43°
2026-05-03 22:47 23.67109 117.02896 36419 ft 550 kts 43°
2026-05-03 22:48 23.69755 117.05911 36701 ft 549 kts 43°
2026-05-03 22:48 23.72394 117.08916 36997 ft 548 kts 43°
2026-05-03 22:48 23.74987 117.11873 37354 ft 545 kts 43°
2026-05-03 22:48 23.77600 117.14847 37773 ft 540 kts 42°
2026-05-03 22:49 23.80300 117.17684 38102 ft 537 kts 38°
2026-05-03 22:49 23.83092 117.20388 38366 ft 535 kts 37°
2026-05-03 22:49 23.85920 117.23041 38632 ft 535 kts 36°
2026-05-03 22:49 23.88748 117.25691 38853 ft 535 kts 36°
2026-05-03 22:50 23.91566 117.28362 39034 ft 536 kts 37°
2026-05-03 22:50 23.94364 117.31049 39291 ft 536 kts 37°
2026-05-03 22:50 23.97153 117.33756 39533 ft 535 kts 37°
2026-05-03 22:50 23.99887 117.36428 39783 ft 534 kts 37°
2026-05-03 22:51 24.02654 117.39142 39992 ft 534 kts 37°
2026-05-03 22:51 24.08223 117.44610 40208 ft 538 kts 37°
2026-05-03 22:51 24.11010 117.47346 40461 ft 536 kts 37°
2026-05-03 22:52 24.13734 117.50137 40692 ft 538 kts 42°
2026-05-03 22:52 24.16315 117.53103 40871 ft 538 kts 43°
2026-05-03 22:52 24.18861 117.56106 41061 ft 538 kts 43°
2026-05-03 22:53 24.23935 117.62193 41146 ft 544 kts 43°
2026-05-03 22:53 24.29022 117.68328 41146 ft 549 kts 44°
2026-05-03 22:54 24.34180 117.74544 41145 ft 551 kts 43°
2026-05-03 22:54 24.39352 117.80777 41146 ft 552 kts 43°
2026-05-03 22:55 24.44520 117.87009 41145 ft 552 kts 44°
2026-05-03 22:55 24.49682 117.93240 41145 ft 552 kts 43°
2026-05-03 22:56 24.54814 117.99443 41145 ft 552 kts 43°
2026-05-03 22:56 24.60018 118.05647 41145 ft 551 kts 41°
2026-05-03 22:57 24.65368 118.11669 41144 ft 550 kts 41°
2026-05-03 22:57 24.70738 118.17683 41145 ft 551 kts 41°
2026-05-03 22:58 24.76095 118.23748 41145 ft 552 kts 41°
2026-05-03 22:58 24.81399 118.29801 41146 ft 552 kts 41°
2026-05-03 22:59 24.86731 118.35900 41156 ft 553 kts 41°
2026-05-03 22:59 24.92060 118.41998 41156 ft 553 kts 41°
2026-05-03 23:00 24.97398 118.48115 41153 ft 553 kts 41°
2026-05-03 23:00 25.02740 118.54243 41153 ft 553 kts 41°
2026-05-03 23:01 25.08073 118.60369 41161 ft 554 kts 41°
2026-05-03 23:01 25.13368 118.66556 41160 ft 555 kts 43°
2026-05-03 23:02 25.18561 118.72871 41169 ft 556 kts 43°
2026-05-03 23:02 25.23727 118.79167 41174 ft 556 kts 43°
2026-05-03 23:03 25.28938 118.85486 41173 ft 556 kts 43°
2026-05-03 23:03 25.34161 118.91813 41183 ft 557 kts 43°
2026-05-03 23:04 25.39446 118.98074 41190 ft 556 kts 41°
2026-05-03 23:04 25.44792 119.04266 41191 ft 556 kts 41°
2026-05-03 23:05 25.50104 119.10437 41201 ft 557 kts 41°
2026-05-03 23:05 25.55438 119.16671 41210 ft 557 kts 41°
2026-05-03 23:06 25.60769 119.22922 41213 ft 558 kts 41°
2026-05-03 23:06 25.66103 119.29187 41219 ft 559 kts 41°
2026-05-03 23:07 25.71504 119.35289 41219 ft 553 kts 34°
2026-05-03 23:07 25.74572 119.37791 41218 ft 542 kts 24°
2026-05-03 23:07 25.77898 119.39663 41224 ft 530 kts 13°
2026-05-03 23:08 25.84829 119.42296 41231 ft 525 kts
2026-05-03 23:08 25.91823 119.44626 41229 ft 524 kts
2026-05-03 23:09 25.98825 119.46944 41230 ft 525 kts
2026-05-03 23:09 26.05794 119.49293 41230 ft 526 kts
2026-05-03 23:10 26.12805 119.51681 41229 ft 527 kts
2026-05-03 23:10 26.19827 119.54010 41226 ft 522 kts
2026-05-03 23:10 26.23361 119.54666 41229 ft 509 kts 355°
2026-05-03 23:11 26.26882 119.54890 41228 ft 504 kts 352°
2026-05-03 23:11 26.33901 119.55047 41228 ft 502 kts 351°
2026-05-03 23:12 26.40857 119.55090 41228 ft 503 kts 351°
2026-05-03 23:12 26.47852 119.55110 41228 ft 503 kts 351°
2026-05-03 23:13 26.54850 119.55133 41229 ft 503 kts 351°
2026-05-03 23:13 26.61850 119.55171 41228 ft 503 kts 351°
2026-05-03 23:14 26.68871 119.55215 41221 ft 504 kts 351°
2026-05-03 23:14 26.75858 119.55260 41220 ft 506 kts 351°
2026-05-03 23:15 26.82909 119.55305 41220 ft 506 kts 350°
2026-05-03 23:15 26.89965 119.55351 41221 ft 507 kts 351°
2026-05-03 23:16 26.97038 119.55396 41221 ft 508 kts 350°
2026-05-03 23:16 27.04124 119.55441 41223 ft 509 kts 350°
2026-05-03 23:17 27.11217 119.55487 41218 ft 509 kts 350°
2026-05-03 23:17 27.18277 119.55533 41221 ft 510 kts 350°
2026-05-03 23:18 27.25379 119.55579 41217 ft 511 kts 350°
2026-05-03 23:18 27.32499 119.55608 41219 ft 511 kts 350°
2026-05-03 23:19 27.39583 119.55612 41241 ft 512 kts 350°
2026-05-03 23:19 27.46719 119.55623 41236 ft 513 kts 350°
2026-05-03 23:20 27.53871 119.55663 41234 ft 513 kts 350°
2026-05-03 23:20 27.61025 119.55709 41233 ft 514 kts 350°
2026-05-03 23:21 27.68197 119.55751 41240 ft 515 kts 350°
2026-05-03 23:21 27.75327 119.55794 41243 ft 515 kts 350°
2026-05-03 23:22 27.86111 119.55853 41224 ft 516 kts 350°
2026-05-03 23:22 27.93303 119.55896 41227 ft 517 kts 350°
2026-05-03 23:23 28.00509 119.55992 41229 ft 517 kts 351°
2026-05-03 23:23 28.07672 119.56120 41228 ft 519 kts 350°
2026-05-03 23:24 28.14915 119.56313 41228 ft 523 kts 352°
2026-05-03 23:24 28.22194 119.56751 41238 ft 524 kts 353°
2026-05-03 23:25 28.29463 119.57214 41228 ft 523 kts 353°
2026-05-03 23:25 28.36747 119.57641 41237 ft 523 kts 352°
2026-05-03 23:26 28.44022 119.58046 41233 ft 523 kts 352°
2026-05-03 23:26 28.51250 119.58460 41225 ft 524 kts 352°
2026-05-03 23:27 28.58540 119.58914 41231 ft 524 kts 352°
2026-05-03 23:27 28.65829 119.59373 41228 ft 524 kts 352°
2026-05-03 23:28 28.73104 119.59827 41228 ft 523 kts 352°
2026-05-03 23:28 28.79531 119.60225 41223 ft 523 kts 352°
2026-05-03 23:29 28.86805 119.60677 41224 ft 523 kts 352°
2026-05-03 23:29 28.94086 119.61128 41232 ft 524 kts 352°
2026-05-03 23:30 29.01326 119.61576 41229 ft 524 kts 352°
2026-05-03 23:30 29.08616 119.62031 41229 ft 524 kts 352°
2026-05-03 23:31 29.15905 119.62486 41228 ft 524 kts 352°
2026-05-03 23:31 29.23189 119.62924 41228 ft 524 kts 352°
2026-05-03 23:32 29.30477 119.63364 41232 ft 524 kts 352°
2026-05-03 23:32 29.37719 119.63805 41229 ft 524 kts 351°
2026-05-03 23:33 29.45013 119.64252 41228 ft 525 kts 351°
2026-05-03 23:33 29.52342 119.65089 41226 ft 541 kts
2026-05-03 23:34 29.54774 119.65849 41226 ft 552 kts
2026-05-03 23:34 29.59475 119.68361 41232 ft 570 kts 22°
2026-05-03 23:34 29.62993 119.70373 41224 ft 559 kts 12°
2026-05-03 23:34 29.65431 119.71469 41223 ft 558 kts 12°
2026-05-03 23:35 29.72528 119.75188 41227 ft 563 kts 15°
2026-05-03 23:35 29.79677 119.78896 41227 ft 564 kts 15°
2026-05-03 23:36 29.86835 119.82603 41227 ft 563 kts 14°
2026-05-03 23:36 29.93959 119.86300 41012 ft 556 kts 14°
2026-05-03 23:37 29.97471 119.88126 40768 ft 551 kts 14°
2026-05-03 23:37 30.00970 119.89942 40524 ft 551 kts 14°
2026-05-03 23:37 30.04473 119.91758 40269 ft 552 kts 14°
2026-05-03 23:37 30.07981 119.93578 40018 ft 553 kts 14°
2026-05-03 23:38 30.11479 119.95399 39580 ft 550 kts 14°
2026-05-03 23:38 30.14964 119.97215 38973 ft 550 kts 14°
2026-05-03 23:38 30.18463 119.99036 38342 ft 550 kts 14°
2026-05-03 23:38 30.21958 120.00856 37687 ft 552 kts 15°
2026-05-03 23:39 30.25462 120.02684 37022 ft 552 kts 15°
2026-05-03 23:39 30.28961 120.04512 36349 ft 553 kts 15°
2026-05-03 23:39 30.32471 120.06346 35648 ft 554 kts 15°
2026-05-03 23:39 30.35948 120.08165 34887 ft 556 kts 16°
2026-05-03 23:40 30.39483 120.10014 34079 ft 559 kts 16°
2026-05-03 23:40 30.43063 120.11781 33240 ft 555 kts 11°
2026-05-03 23:40 30.46769 120.12756 32393 ft 537 kts 355°
2026-05-03 23:40 30.50415 120.12691 31566 ft 514 kts 341°
2026-05-03 23:41 30.53785 120.11637 30752 ft 490 kts 326°
2026-05-03 23:41 30.56655 120.09708 29967 ft 466 kts 312°
2026-05-03 23:41 30.58878 120.07108 29276 ft 447 kts 301°
2026-05-03 23:41 30.61017 120.04475 28741 ft 450 kts 309°
2026-05-03 23:42 30.63416 120.02131 28187 ft 450 kts 312°
2026-05-03 23:42 30.65874 119.99908 27642 ft 446 kts 313°
2026-05-03 23:42 30.68305 119.97771 27100 ft 442 kts 314°
2026-05-03 23:42 30.70757 119.95642 26561 ft 437 kts 315°
2026-05-03 23:43 30.73191 119.93556 26013 ft 432 kts 315°
2026-05-03 23:43 30.75599 119.91482 25487 ft 430 kts 315°
2026-05-03 23:43 30.77997 119.89422 24951 ft 428 kts 315°
2026-05-03 23:43 30.80389 119.87367 24416 ft 425 kts 315°
2026-05-03 23:44 30.82769 119.85326 23881 ft 423 kts 316°
2026-05-03 23:44 30.85134 119.83299 23352 ft 421 kts 316°
2026-05-03 23:44 30.87478 119.81290 22816 ft 417 kts 316°
2026-05-03 23:44 30.89800 119.79298 22287 ft 412 kts 317°
2026-05-03 23:45 30.92063 119.77356 21756 ft 407 kts 317°
2026-05-03 23:45 30.94352 119.75392 21223 ft 401 kts 317°
2026-05-03 23:45 30.96555 119.73498 20703 ft 396 kts 317°
2026-05-03 23:45 30.98762 119.71599 20175 ft 392 kts 318°
2026-05-03 23:46 31.00942 119.69720 19644 ft 386 kts 318°
2026-05-03 23:46 31.03090 119.67870 19120 ft 382 kts 319°
2026-05-03 23:46 31.05222 119.66033 18592 ft 378 kts 319°
2026-05-03 23:46 31.07331 119.64217 18062 ft 375 kts 319°
2026-05-03 23:47 31.09418 119.62418 17532 ft 371 kts 320°
2026-05-03 23:47 31.11481 119.60637 16998 ft 367 kts 320°
2026-05-03 23:47 31.13529 119.58869 16471 ft 364 kts 320°
2026-05-03 23:47 31.15531 119.57141 15936 ft 362 kts 320°
2026-05-03 23:48 31.17551 119.55394 15399 ft 359 kts 321°
2026-05-03 23:48 31.19551 119.53663 14848 ft 356 kts 321°
2026-05-03 23:48 31.21537 119.51946 14310 ft 353 kts 321°
2026-05-03 23:48 31.23512 119.50237 13765 ft 351 kts 322°
2026-05-03 23:49 31.25468 119.48542 13228 ft 349 kts 322°
2026-05-03 23:49 31.27416 119.46854 12686 ft 347 kts 322°
2026-05-03 23:49 31.29349 119.45180 12134 ft 344 kts 322°
2026-05-03 23:49 31.31265 119.43519 11582 ft 341 kts 322°
2026-05-03 23:50 31.33125 119.41907 11291 ft 330 kts 323°
2026-05-03 23:50 31.34925 119.40343 11155 ft 314 kts 323°
2026-05-03 23:50 31.36637 119.38853 11033 ft 300 kts 323°
2026-05-03 23:50 31.38275 119.37431 10906 ft 287 kts 323°
2026-05-03 23:51 31.39845 119.36068 10765 ft 275 kts 322°
2026-05-03 23:51 31.41347 119.34761 10628 ft 263 kts 322°
2026-05-03 23:51 31.42784 119.33508 10504 ft 252 kts 322°
2026-05-03 23:51 31.44185 119.32286 10399 ft 255 kts 322°
2026-05-03 23:52 31.45649 119.31009 10348 ft 266 kts 323°
2026-05-03 23:52 31.47136 119.29717 10131 ft 265 kts 323°
2026-05-03 23:52 31.48626 119.28422 9646 ft 268 kts 322°
2026-05-03 23:52 31.50119 119.27119 9274 ft 266 kts 322°
2026-05-03 23:53 31.51597 119.25827 8985 ft 264 kts 323°
2026-05-03 23:53 31.53071 119.24538 8711 ft 263 kts 322°
2026-05-03 23:53 31.54521 119.23271 8438 ft 262 kts 323°
2026-05-03 23:53 31.55986 119.21996 8127 ft 262 kts 323°
2026-05-03 23:54 31.57466 119.20758 7779 ft 261 kts 327°
2026-05-03 23:54 31.59151 119.19961 7456 ft 263 kts 346°
2026-05-03 23:54 31.60959 119.19651 7138 ft 263 kts 351°
2026-05-03 23:54 31.62779 119.19427 6848 ft 262 kts 351°
2026-05-03 23:55 31.64590 119.19200 6544 ft 262 kts 351°
2026-05-03 23:55 31.66372 119.18974 6257 ft 261 kts 351°
2026-05-03 23:55 31.68172 119.18740 5984 ft 260 kts 351°
2026-05-03 23:55 31.69969 119.18506 5704 ft 260 kts 350°
2026-05-03 23:56 31.71761 119.18271 5429 ft 260 kts 351°
2026-05-03 23:56 31.73545 119.18033 5254 ft 253 kts 350°
2026-05-03 23:56 31.75259 119.17807 5133 ft 243 kts 350°
2026-05-03 23:56 31.76912 119.17592 5014 ft 234 kts 350°
2026-05-03 23:57 31.78488 119.17333 4875 ft 223 kts 343°
2026-05-03 23:57 31.79872 119.16645 4754 ft 211 kts 327°
2026-05-03 23:57 31.81091 119.15773 4578 ft 198 kts 325°
2026-05-03 23:57 31.82221 119.14930 4437 ft 187 kts 325°
2026-05-03 23:58 31.83312 119.14124 4272 ft 183 kts 325°
2026-05-03 23:58 31.84348 119.13315 4085 ft 179 kts 320°
2026-05-03 23:58 31.85075 119.12172 3905 ft 176 kts 290°
2026-05-03 23:58 31.85122 119.10748 3740 ft 179 kts 257°
2026-05-03 23:59 31.84566 119.09427 3564 ft 182 kts 242°
2026-05-03 23:59 31.83876 119.08176 3424 ft 181 kts 240°
2026-05-03 23:59 31.83156 119.06957 3353 ft 182 kts 239°
2026-05-03 23:59 31.82470 119.05714 3270 ft 180 kts 242°
2026-05-04 00:00 31.81814 119.04459 3208 ft 181 kts 242°
2026-05-04 00:00 31.81146 119.03205 3037 ft 181 kts 241°
2026-05-04 00:00 31.80471 119.01953 2775 ft 180 kts 240°
2026-05-04 00:00 31.79819 119.00718 2522 ft 180 kts 238°
2026-05-04 00:01 31.79153 118.99462 2294 ft 180 kts 237°
2026-05-04 00:01 31.78493 118.98223 2048 ft 175 kts 236°
2026-05-04 00:01 31.77858 118.97031 1814 ft 170 kts 236°
2026-05-04 00:01 31.77238 118.95870 1583 ft 166 kts 237°
2026-05-04 00:02 31.76640 118.94741 1371 ft 160 kts 237°
2026-05-04 00:02 31.76065 118.93659 1160 ft 153 kts 238°
2026-05-04 00:02 31.75513 118.92620 968 ft 148 kts 238°
2026-05-04 00:02 31.74971 118.91600 776 ft 147 kts 238°
2026-05-04 00:03 31.74427 118.90577 580 ft 147 kts 238°
2026-05-04 00:03 31.73885 118.89560 365 ft 146 kts 238°
2026-05-04 00:03 31.73353 118.88559 183 ft 146 kts 238°
2026-05-04 00:03 31.72816 118.87553 76 ft 142 kts 238°
2026-05-04 00:04 31.72346 118.86676 65 ft 101 kts 238°
2026-05-04 00:04 31.72078 118.86176 66 ft 43 kts 238°
2026-05-04 00:04 31.71946 118.85919 67 ft 33 kts 247°
2026-05-04 00:04 31.71910 118.85709 65 ft 14 kts 266°
2026-05-04 00:05 31.71928 118.85610 65 ft 12 kts 322°
2026-05-04 00:05 31.71993 118.85642 65 ft 12 kts 57°
2026-05-04 00:05 31.72043 118.85734 65 ft 14 kts 58°
2026-05-04 00:05 31.72099 118.85840 65 ft 17 kts 58°
2026-05-04 00:06 31.72165 118.85962 65 ft 19 kts 58°
2026-05-04 00:06 31.72238 118.86098 65 ft 19 kts 58°
2026-05-04 00:06 31.72312 118.86238 65 ft 21 kts 58°
2026-05-04 00:06 31.72385 118.86374 64 ft 17 kts 58°
2026-05-04 00:07 31.72450 118.86494 55 ft 15 kts 58°
2026-05-04 00:07 31.72507 118.86601 56 ft 17 kts 58°
2026-05-04 00:07 31.72574 118.86726 56 ft 19 kts 58°
2026-05-04 00:07 31.72645 118.86859 56 ft 17 kts 58°
2026-05-04 00:08 31.72709 118.86979 56 ft 13 kts 58°
2026-05-04 00:08 31.72755 118.87031 57 ft 9 kts 13°
2026-05-04 00:08 31.72818 118.87002 60 ft 11 kts 328°
2026-05-04 00:08 31.72874 118.86970 65 ft 9 kts 354°
2026-05-04 00:09 31.72919 118.87011 60 ft 9 kts 57°
2026-05-04 00:09 31.72959 118.87058 57 ft 6 kts 11°
2026-05-04 00:09 31.73000 118.87038 57 ft 6 kts 328°
2026-05-04 00:09 31.73024 118.87020 57 ft 3 kts 328°
2026-05-04 00:10 31.73035 118.87012 64 ft 0 kts 328°